| time (UTC) | temp F | wind direction | speed MPH | gust MPH | rain 1hr in | rain 24hr in | rain mn in | humidity % | barometer mb |
| 20260905104254 | 64 | 159 | 14.0 | 16.0 | 0.00 | 0.00 | 0.00 | 99 | 1025.7 |
| 20260905103753 | 64 | 125 | 9.0 | 11.0 | 0.00 | 0.00 | 0.00 | 99 | 1025.7 |
| 20260905103249 | 64 | 125 | 9.0 | 11.0 | 0.00 | 0.00 | 0.00 | 99 | 1025.7 |
| 20260905102744 | 65 | 149 | 12.0 | 15.0 | 0.00 | 0.00 | 0.00 | 99 | 1025.7 |
| 20260905102241 | 65 | 149 | 12.0 | 15.0 | 0.00 | 0.00 | 0.00 | 99 | 1025.7 |
| 20260905101740 | 64 | 165 | 12.0 | 14.0 | 0.00 | 0.00 | 0.00 | 99 | 1025.5 |
| 20260905101238 | 64 | 165 | 12.0 | 14.0 | 0.00 | 0.00 | 0.00 | 99 | 1025.5 |
| 20260905100734 | 64 | 130 | 10.0 | 11.0 | 0.00 | 0.00 | 0.00 | 99 | 1025.6 |
| 20260905100229 | 64 | 130 | 10.0 | 11.0 | 0.00 | 0.00 | 0.00 | 99 | 1025.6 |
| 20260905095724 | 64 | 123 | 10.0 | 13.0 | 0.00 | 0.00 | 0.00 | 99 | 1025.6 |
| 20260905095223 | 64 | 123 | 10.0 | 13.0 | 0.00 | 0.00 | 0.00 | 99 | 1025.6 |
| 20260905094719 | 64 | 111 | 12.0 | 15.0 | 0.00 | 0.00 | 0.00 | 99 | 1025.6 |
| 20260905094219 | 64 | 111 | 12.0 | 15.0 | 0.00 | 0.00 | 0.00 | 99 | 1025.6 |
| 20260905093713 | 64 | 124 | 12.0 | 15.0 | 0.00 | 0.00 | 0.00 | 99 | 1025.3 |
| 20260905093209 | 64 | 124 | 12.0 | 15.0 | 0.00 | 0.00 | 0.00 | 99 | 1025.3 |
| 20260905092704 | 63 | 158 | 8.0 | 10.0 | 0.00 | 0.00 | 0.00 | 99 | 1025.6 |
| 20260905092159 | 63 | 158 | 8.0 | 10.0 | 0.00 | 0.00 | 0.00 | 99 | 1025.6 |
| 20260905091654 | 63 | 140 | 8.0 | 9.0 | 0.00 | 0.00 | 0.00 | 99 | 1025.3 |
| 20260905091153 | 63 | 140 | 8.0 | 9.0 | 0.00 | 0.00 | 0.00 | 99 | 1025.3 |
| 20260905090648 | 63 | 137 | 13.0 | 14.0 | 0.00 | 0.00 | 0.00 | 99 | 1025.3 |
| 20260905090144 | 63 | 137 | 13.0 | 14.0 | 0.00 | 0.00 | 0.00 | 99 | 1025.3 |
| 20260905085642 | 64 | 115 | 11.0 | 13.0 | 0.00 | 0.00 | 0.00 | 99 | 1025.3 |
| 20260905085137 | 64 | 115 | 11.0 | 13.0 | 0.00 | 0.00 | 0.00 | 99 | 1025.3 |
| 20260905084636 | 63 | 124 | 8.0 | 9.0 | 0.00 | 0.00 | 0.00 | 99 | 1025.3 |
| 20260905084132 | 63 | 124 | 8.0 | 9.0 | 0.00 | 0.00 | 0.00 | 99 | 1025.3 |
| 20260905083626 | 64 | 135 | 11.0 | 11.0 | 0.00 | 0.00 | 0.00 | 99 | 1025.3 |
| 20260905083123 | 64 | 135 | 11.0 | 11.0 | 0.00 | 0.00 | 0.00 | 99 | 1025.3 |
| 20260905082618 | 64 | 116 | 11.0 | 14.0 | 0.00 | 0.00 | 0.00 | 99 | 1025.5 |
| 20260905082114 | 64 | 116 | 11.0 | 14.0 | 0.00 | 0.00 | 0.00 | 99 | 1025.5 |
| 20260905081613 | 63 | 156 | 12.0 | 14.0 | 0.00 | 0.00 | 0.00 | 99 | 1025.3 |
| 20260905081108 | 63 | 156 | 12.0 | 14.0 | 0.00 | 0.00 | 0.00 | 99 | 1025.3 |
| 20260905080603 | 63 | 123 | 7.0 | 7.0 | 0.00 | 0.00 | 0.00 | 99 | 1025.3 |
| 20260905080057 | 63 | 123 | 7.0 | 7.0 | 0.00 | 0.00 | 0.00 | 99 | 1025.3 |
| 20260905075550 | 63 | 139 | 11.0 | 14.0 | 0.00 | 0.00 | 0.00 | 99 | 1025.6 |
| 20260905075045 | 63 | 139 | 11.0 | 14.0 | 0.00 | 0.00 | 0.00 | 99 | 1025.6 |
| 20260905074544 | 64 | 158 | 11.0 | 13.0 | 0.00 | 0.00 | 0.00 | 99 | 1025.6 |
| 20260905074040 | 64 | 158 | 11.0 | 13.0 | 0.00 | 0.00 | 0.00 | 99 | 1025.6 |
| 20260905073535 | 64 | 145 | 11.0 | 13.0 | 0.00 | 0.00 | 0.00 | 99 | 1025.5 |
| 20260905073031 | 64 | 145 | 11.0 | 13.0 | 0.00 | 0.00 | 0.00 | 99 | 1025.5 |
| 20260905072530 | 64 | 136 | 8.0 | 10.0 | 0.00 | 0.00 | 0.00 | 99 | 1025.6 |
| 20260905072026 | 64 | 136 | 8.0 | 10.0 | 0.00 | 0.00 | 0.00 | 99 | 1025.6 |
| 20260905071523 | 65 | 133 | 10.0 | 10.0 | 0.00 | 0.00 | 0.00 | 99 | 1025.5 |
| 20260905071023 | 65 | 133 | 10.0 | 10.0 | 0.00 | 0.00 | 0.00 | 99 | 1025.5 |
| 20260905070518 | 66 | 98 | 10.0 | 11.0 | 0.00 | 0.00 | 0.00 | 99 | 1025.6 |
| 20260905070014 | 66 | 98 | 10.0 | 11.0 | 0.00 | 0.00 | 0.00 | 99 | 1025.6 |
| 20260905065511 | 66 | 137 | 10.0 | 10.0 | 0.00 | 0.00 | 0.00 | 99 | 1025.5 |
| 20260905065007 | 66 | 137 | 10.0 | 10.0 | 0.00 | 0.00 | 0.00 | 99 | 1025.5 |
| 20260905064502 | 66 | 123 | 8.0 | 9.0 | 0.00 | 0.00 | 0.00 | 99 | 1025.5 |
| 20260905063956 | 66 | 123 | 8.0 | 9.0 | 0.00 | 0.00 | 0.00 | 99 | 1025.5 |
| 20260905063450 | 68 | 105 | 5.0 | 6.0 | 0.00 | 0.00 | 0.00 | 99 | 1025.5 |
| 20260905062947 | 69 | 98 | 6.0 | 7.0 | 0.00 | 0.00 | 0.00 | 99 | 1025.7 |
| 20260905062447 | 69 | 98 | 6.0 | 7.0 | 0.00 | 0.00 | 0.00 | 99 | 1025.7 |
| 20260905061942 | 71 | 86 | 2.0 | 2.0 | 0.00 | 0.00 | 0.00 | 99 | 1025.6 |
| 20260905061442 | 71 | 86 | 2.0 | 2.0 | 0.00 | 0.00 | 0.00 | 99 | 1025.6 |
| 20260905060936 | 71 | 87 | 4.0 | 4.0 | 0.00 | 0.00 | 0.00 | 99 | 1025.5 |
| 20260905060432 | 71 | 87 | 4.0 | 4.0 | 0.00 | 0.00 | 0.00 | 99 | 1025.5 |
| 20260905055931 | 71 | 143 | 0.0 | 1.0 | 0.00 | 0.00 | 0.00 | 99 | 1025.7 |
| 20260905055426 | 71 | 143 | 0.0 | 1.0 | 0.00 | 0.00 | 0.00 | 99 | 1025.7 |
| 20260905054925 | 71 | 65 | 5.0 | 6.0 | 0.00 | 0.00 | 0.00 | 99 | 1025.6 |
| 20260905054422 | 71 | 65 | 5.0 | 6.0 | 0.00 | 0.00 | 0.00 | 99 | 1025.6 |
| 20260905053921 | 71 | 114 | 2.0 | 2.0 | 0.00 | 0.00 | 0.00 | 99 | 1025.7 |
| 20260905053416 | 71 | 114 | 2.0 | 2.0 | 0.00 | 0.00 | 0.00 | 99 | 1025.7 |
| 20260905052912 | 69 | 145 | 0.0 | 0.0 | 0.00 | 0.00 | 0.00 | 99 | 1025.8 |
| 20260905052411 | 69 | 145 | 0.0 | 0.0 | 0.00 | 0.00 | 0.00 | 99 | 1025.8 |
| 20260905051911 | 70 | 117 | 0.0 | 0.0 | 0.00 | 0.00 | 0.00 | 99 | 1026.0 |
| 20260905051407 | 70 | 117 | 0.0 | 0.0 | 0.00 | 0.00 | 0.00 | 99 | 1026.0 |
| 20260905050904 | 71 | 126 | 0.0 | 0.0 | 0.00 | 0.00 | 0.00 | 99 | 1025.8 |
| 20260905050400 | 71 | 126 | 0.0 | 0.0 | 0.00 | 0.00 | 0.00 | 99 | 1025.8 |
| 20260905045855 | 72 | 193 | 1.0 | 1.0 | 0.00 | 0.00 | 0.00 | 99 | 1025.8 |
| 20260905045350 | 72 | 193 | 1.0 | 1.0 | 0.00 | 0.00 | 0.00 | 99 | 1025.8 |
| 20260905044845 | 72 | 93 | 2.0 | 3.0 | 0.00 | 0.00 | 0.00 | 99 | 1026.0 |
| 20260905044340 | 72 | 93 | 2.0 | 3.0 | 0.00 | 0.00 | 0.00 | 99 | 1026.0 |
| 20260905043839 | 71 | 172 | 1.0 | 1.0 | 0.00 | 0.00 | 0.00 | 99 | 1026.0 |
| 20260905043334 | 71 | 172 | 1.0 | 1.0 | 0.00 | 0.00 | 0.00 | 99 | 1026.0 |
| 20260905042829 | 71 | 158 | 0.0 | 1.0 | 0.00 | 0.00 | 0.00 | 99 | 1025.8 |
| 20260905042328 | 71 | 158 | 0.0 | 1.0 | 0.00 | 0.00 | 0.00 | 99 | 1025.8 |
| 20260905041823 | 72 | 131 | 0.0 | 0.0 | 0.00 | 0.00 | 0.00 | 99 | 1026.2 |
| 20260905041319 | 72 | 131 | 0.0 | 0.0 | 0.00 | 0.00 | 0.00 | 99 | 1026.2 |
| 20260905040814 | 73 | 114 | 2.0 | 2.0 | 0.00 | 0.00 | 0.00 | 99 | 1026.0 |
| 20260905040307 | 73 | 114 | 2.0 | 2.0 | 0.00 | 0.00 | 0.00 | 99 | 1026.0 |
| 20260905035802 | 73 | 117 | 1.0 | 2.0 | 0.00 | 0.00 | 0.00 | 99 | 1026.2 |
| 20260905035258 | 73 | 117 | 1.0 | 2.0 | 0.00 | 0.00 | 0.00 | 99 | 1026.2 |
| 20260905034755 | 72 | 116 | 3.0 | 3.0 | 0.00 | 0.00 | 0.00 | 99 | 1026.1 |
| 20260905034255 | 72 | 116 | 3.0 | 3.0 | 0.00 | 0.00 | 0.00 | 99 | 1026.1 |
| 20260905033753 | 73 | 13 | 2.0 | 2.0 | 0.00 | 0.00 | 0.00 | 99 | 1026.0 |
| 20260905033249 | 73 | 13 | 2.0 | 2.0 | 0.00 | 0.00 | 0.00 | 99 | 1026.0 |
| 20260905032748 | 73 | 311 | 6.0 | 7.0 | 0.00 | 0.00 | 0.00 | 99 | 1026.0 |
| 20260905032244 | 73 | 311 | 6.0 | 7.0 | 0.00 | 0.00 | 0.00 | 99 | 1026.0 |
| 20260905031738 | 73 | 313 | 4.0 | 6.0 | 0.00 | 0.00 | 0.00 | 99 | 1026.1 |
| 20260905031235 | 73 | 313 | 4.0 | 6.0 | 0.00 | 0.00 | 0.00 | 99 | 1026.1 |
| 20260905030734 | 73 | 170 | 3.0 | 4.0 | 0.00 | 0.00 | 0.00 | 99 | 1026.1 |
| 20260905030230 | 73 | 170 | 3.0 | 4.0 | 0.00 | 0.00 | 0.00 | 99 | 1026.1 |
| 20260905025724 | 73 | 0 | 5.0 | 6.0 | 0.00 | 0.00 | 0.00 | 99 | 1026.0 |
| 20260905025220 | 73 | 0 | 5.0 | 6.0 | 0.00 | 0.00 | 0.00 | 99 | 1026.0 |
| 20260905024715 | 73 | 312 | 4.0 | 4.0 | 0.00 | 0.00 | 0.00 | 99 | 1025.7 |
| 20260905024211 | 73 | 312 | 4.0 | 4.0 | 0.00 | 0.00 | 0.00 | 99 | 1025.7 |
| 20260905023706 | 73 | 359 | 2.0 | 2.0 | 0.00 | 0.00 | 0.00 | 99 | 1025.6 |
| 20260905023206 | 73 | 359 | 2.0 | 2.0 | 0.00 | 0.00 | 0.00 | 99 | 1025.6 |
| 20260905022705 | 74 | 348 | 4.0 | 4.0 | 0.00 | 0.00 | 0.00 | 99 | 1025.2 |
| 20260905022201 | 74 | 348 | 4.0 | 4.0 | 0.00 | 0.00 | 0.00 | 99 | 1025.2 |
| 20260905021655 | 74 | 344 | 4.0 | 4.0 | 0.00 | 0.00 | 0.00 | 99 | 1025.2 |
| 20260905021150 | 74 | 344 | 4.0 | 4.0 | 0.00 | 0.00 | 0.00 | 99 | 1025.2 |
| 20260905020645 | 74 | 340 | 4.0 | 4.0 | 0.00 | 0.00 | 0.00 | 99 | 1025.2 |
| 20260905020141 | 74 | 340 | 4.0 | 4.0 | 0.00 | 0.00 | 0.00 | 99 | 1025.2 |
| 20260905015639 | 74 | 304 | 6.0 | 7.0 | 0.00 | 0.00 | 0.00 | 99 | 1024.8 |
| 20260905015133 | 74 | 304 | 6.0 | 7.0 | 0.00 | 0.00 | 0.00 | 99 | 1024.8 |
| 20260905014627 | 74 | 270 | 4.0 | 6.0 | 0.00 | 0.00 | 0.00 | 99 | 1025.0 |
| 20260905014123 | 74 | 270 | 4.0 | 6.0 | 0.00 | 0.00 | 0.00 | 99 | 1025.0 |
| 20260905013620 | 75 | 240 | 6.0 | 7.0 | 0.00 | 0.00 | 0.00 | 99 | 1024.8 |
| 20260905013115 | 75 | 240 | 6.0 | 7.0 | 0.00 | 0.00 | 0.00 | 99 | 1024.8 |
| 20260905012614 | 75 | 281 | 8.0 | 9.0 | 0.00 | 0.00 | 0.00 | 99 | 1024.7 |
| 20260905012111 | 75 | 281 | 8.0 | 9.0 | 0.00 | 0.00 | 0.00 | 99 | 1024.7 |
| 20260905011607 | 75 | 316 | 13.0 | 14.0 | 0.00 | 0.00 | 0.00 | 99 | 1024.7 |
| 20260905011102 | 75 | 316 | 13.0 | 14.0 | 0.00 | 0.00 | 0.00 | 99 | 1024.7 |
| 20260905010556 | 75 | 316 | 13.0 | 15.0 | 0.00 | 0.00 | 0.00 | 99 | 1024.6 |
| 20260905010053 | 75 | 316 | 13.0 | 15.0 | 0.00 | 0.00 | 0.00 | 99 | 1024.6 |
| 20260905005548 | 75 | 314 | 11.0 | 11.0 | 0.00 | 0.00 | 0.00 | 99 | 1024.6 |
| 20260905005043 | 75 | 314 | 11.0 | 11.0 | 0.00 | 0.00 | 0.00 | 99 | 1024.6 |
| 20260905004538 | 75 | 338 | 10.0 | 11.0 | 0.00 | 0.00 | 0.00 | 99 | 1024.6 |
| 20260905004034 | 75 | 338 | 10.0 | 11.0 | 0.00 | 0.00 | 0.00 | 99 | 1024.6 |
| 20260905003529 | 75 | 292 | 10.0 | 11.0 | 0.00 | 0.00 | 0.00 | 99 | 1024.5 |
| 20260905003025 | 75 | 292 | 10.0 | 11.0 | 0.00 | 0.00 | 0.00 | 99 | 1024.5 |
| 20260905002520 | 76 | 273 | 11.0 | 13.0 | 0.00 | 0.00 | 0.00 | 99 | 1024.2 |
| 20260905002020 | 76 | 273 | 11.0 | 13.0 | 0.00 | 0.00 | 0.00 | 99 | 1024.2 |
| 20260905001514 | 77 | 273 | 5.0 | 7.0 | 0.00 | 0.00 | 0.00 | 99 | 1024.5 |
| 20260905001008 | 77 | 273 | 5.0 | 7.0 | 0.00 | 0.00 | 0.00 | 99 | 1024.5 |
| 20260905000504 | 76 | 321 | 9.0 | 10.0 | 0.00 | 0.00 | 0.00 | 99 | 1024.3 |
| 20260905000000 | 76 | 321 | 9.0 | 10.0 | 0.00 | 0.00 | 0.00 | 99 | 1024.3 |
| 20260904235455 | 76 | 285 | 6.0 | 7.0 | 0.00 | 0.00 | 0.00 | 99 | 1024.3 |
| 20260904234949 | 76 | 285 | 6.0 | 7.0 | 0.00 | 0.00 | 0.00 | 99 | 1024.3 |
| 20260904234443 | 76 | 252 | 5.0 | 7.0 | 0.00 | 0.00 | 0.00 | 99 | 1024.6 |
| 20260904233940 | 76 | 252 | 5.0 | 7.0 | 0.00 | 0.00 | 0.00 | 99 | 1024.6 |
| 20260904233434 | 77 | 258 | 5.0 | 7.0 | 0.00 | 0.00 | 0.00 | 99 | 1024.3 |
| 20260904232931 | 77 | 258 | 5.0 | 7.0 | 0.00 | 0.00 | 0.00 | 99 | 1024.3 |
| 20260904232427 | 76 | 352 | 9.0 | 13.0 | 0.00 | 0.00 | 0.00 | 99 | 1024.2 |
| 20260904231924 | 76 | 352 | 9.0 | 13.0 | 0.00 | 0.00 | 0.00 | 99 | 1024.2 |
| 20260904231423 | 77 | 323 | 10.0 | 14.0 | 0.00 | 0.00 | 0.00 | 99 | 1024.2 |
| 20260904230919 | 77 | 323 | 10.0 | 14.0 | 0.00 | 0.00 | 0.00 | 99 | 1024.2 |
| 20260904230417 | 77 | 277 | 8.0 | 9.0 | 0.00 | 0.00 | 0.00 | 99 | 1024.2 |
| 20260904225912 | 77 | 277 | 8.0 | 9.0 | 0.00 | 0.00 | 0.00 | 99 | 1024.2 |
| 20260904225410 | 77 | 281 | 9.0 | 11.0 | 0.00 | 0.00 | 0.00 | 99 | 1024.3 |
| 20260904224905 | 77 | 281 | 9.0 | 11.0 | 0.00 | 0.00 | 0.00 | 99 | 1024.3 |
| 20260904224401 | 77 | 277 | 11.0 | 13.0 | 0.00 | 0.00 | 0.00 | 99 | 1024.1 |
| 20260904223900 | 78 | 288 | 11.0 | 13.0 | 0.00 | 0.00 | 0.00 | 99 | 1024.3 |
| 20260904223359 | 78 | 288 | 11.0 | 13.0 | 0.00 | 0.00 | 0.00 | 99 | 1024.3 |
| 20260904222857 | 78 | 328 | 17.0 | 21.0 | 0.00 | 0.00 | 0.00 | 99 | 1024.3 |
| 20260904222356 | 78 | 328 | 17.0 | 21.0 | 0.00 | 0.00 | 0.00 | 99 | 1024.3 |
| 20260904221856 | 78 | 284 | 12.0 | 14.0 | 0.00 | 0.00 | 0.00 | 99 | 1024.2 |
| 20260904221351 | 78 | 284 | 12.0 | 14.0 | 0.00 | 0.00 | 0.00 | 99 | 1024.2 |
| 20260904220846 | 79 | 259 | 13.0 | 17.0 | 0.00 | 0.00 | 0.00 | 99 | 1024.1 |
| 20260904220345 | 79 | 259 | 13.0 | 17.0 | 0.00 | 0.00 | 0.00 | 99 | 1024.1 |
| 20260904215841 | 80 | 338 | 7.0 | 8.0 | 0.00 | 0.00 | 0.00 | 99 | 1024.3 |
| 20260904215336 | 80 | 338 | 7.0 | 8.0 | 0.00 | 0.00 | 0.00 | 99 | 1024.3 |
| 20260904214832 | 80 | 300 | 11.0 | 14.0 | 0.00 | 0.00 | 0.00 | 99 | 1024.2 |
| 20260904214327 | 80 | 300 | 11.0 | 14.0 | 0.00 | 0.00 | 0.00 | 99 | 1024.2 |
| 20260904213825 | 80 | 295 | 11.0 | 14.0 | 0.00 | 0.00 | 0.00 | 99 | 1024.2 |
| 20260904213321 | 80 | 295 | 11.0 | 14.0 | 0.00 | 0.00 | 0.00 | 99 | 1024.2 |
| 20260904212817 | 80 | 92 | 7.0 | 8.0 | 0.00 | 0.00 | 0.00 | 99 | 1024.2 |
| 20260904212318 | 80 | 92 | 7.0 | 8.0 | 0.00 | 0.00 | 0.00 | 99 | 1024.2 |
| 20260904211813 | 80 | 308 | 9.0 | 9.0 | 0.00 | 0.00 | 0.00 | 99 | 1024.3 |
| 20260904211308 | 80 | 308 | 9.0 | 9.0 | 0.00 | 0.00 | 0.00 | 99 | 1024.3 |
| 20260904210803 | 79 | 287 | 9.0 | 13.0 | 0.00 | 0.00 | 0.00 | 99 | 1024.5 |
| 20260904210302 | 79 | 287 | 9.0 | 13.0 | 0.00 | 0.00 | 0.00 | 99 | 1024.5 |
| 20260904205758 | 80 | 263 | 9.0 | 11.0 | 0.00 | 0.00 | 0.00 | 99 | 1024.6 |
| 20260904205254 | 80 | 263 | 9.0 | 11.0 | 0.00 | 0.00 | 0.00 | 99 | 1024.6 |
| 20260904204751 | 79 | 331 | 14.0 | 16.0 | 0.00 | 0.00 | 0.00 | 99 | 1024.6 |
| 20260904204247 | 79 | 331 | 14.0 | 16.0 | 0.00 | 0.00 | 0.00 | 99 | 1024.6 |
| 20260904203742 | 77 | 255 | 11.0 | 16.0 | 0.00 | 0.00 | 0.00 | 99 | 1024.5 |
| 20260904203238 | 77 | 255 | 11.0 | 16.0 | 0.00 | 0.00 | 0.00 | 99 | 1024.5 |
| 20260904202734 | 77 | 298 | 8.0 | 11.0 | 0.00 | 0.00 | 0.00 | 99 | 1024.5 |
| 20260904202230 | 77 | 298 | 8.0 | 11.0 | 0.00 | 0.00 | 0.00 | 99 | 1024.5 |
| 20260904201725 | 77 | 335 | 13.0 | 15.0 | 0.00 | 0.00 | 0.00 | 99 | 1024.7 |
| 20260904201219 | 77 | 335 | 13.0 | 15.0 | 0.00 | 0.00 | 0.00 | 99 | 1024.7 |
| 20260904200714 | 78 | 327 | 11.0 | 13.0 | 0.00 | 0.00 | 0.00 | 99 | 1024.6 |
| 20260904200209 | 78 | 327 | 11.0 | 13.0 | 0.00 | 0.00 | 0.00 | 99 | 1024.6 |
| 20260904195708 | 79 | 296 | 6.0 | 8.0 | 0.00 | 0.00 | 0.00 | 99 | 1024.6 |
| 20260904195207 | 79 | 296 | 6.0 | 8.0 | 0.00 | 0.00 | 0.00 | 99 | 1024.6 |
| 20260904194702 | 80 | 354 | 4.0 | 6.0 | 0.00 | 0.00 | 0.00 | 99 | 1024.6 |
| 20260904194201 | 80 | 354 | 4.0 | 6.0 | 0.00 | 0.00 | 0.00 | 99 | 1024.6 |
| 20260904193657 | 80 | 304 | 8.0 | 9.0 | 0.00 | 0.00 | 0.00 | 99 | 1025.0 |
| 20260904193153 | 80 | 304 | 8.0 | 9.0 | 0.00 | 0.00 | 0.00 | 99 | 1025.0 |
| 20260904192653 | 82 | 60 | 4.0 | 6.0 | 0.00 | 0.00 | 0.00 | 99 | 1024.7 |
| 20260904192143 | 82 | 60 | 4.0 | 6.0 | 0.00 | 0.00 | 0.00 | 99 | 1024.7 |
| 20260904191639 | 80 | 84 | 2.0 | 3.0 | 0.00 | 0.00 | 0.00 | 99 | 1025.0 |
| 20260904191130 | 80 | 84 | 2.0 | 3.0 | 0.00 | 0.00 | 0.00 | 99 | 1025.0 |
| 20260904190625 | 80 | 60 | 9.0 | 10.0 | 0.00 | 0.00 | 0.00 | 99 | 1024.7 |
| 20260904190121 | 80 | 60 | 9.0 | 10.0 | 0.00 | 0.00 | 0.00 | 99 | 1024.7 |
| 20260904185618 | 82 | 233 | 3.0 | 4.0 | 0.00 | 0.00 | 0.00 | 99 | 1025.0 |
| 20260904185118 | 82 | 233 | 3.0 | 4.0 | 0.00 | 0.00 | 0.00 | 99 | 1025.0 |
| 20260904184616 | 82 | 307 | 5.0 | 9.0 | 0.00 | 0.00 | 0.00 | 99 | 1025.0 |
| 20260904184112 | 82 | 307 | 5.0 | 9.0 | 0.00 | 0.00 | 0.00 | 99 | 1025.0 |
| 20260904183608 | 82 | 333 | 6.0 | 9.0 | 0.00 | 0.00 | 0.00 | 99 | 1025.2 |
| 20260904183057 | 82 | 333 | 6.0 | 9.0 | 0.00 | 0.00 | 0.00 | 99 | 1025.2 |
| 20260904182552 | 79 | 79 | 7.0 | 8.0 | 0.00 | 0.00 | 0.00 | 99 | 1025.3 |
| 20260904182052 | 79 | 79 | 7.0 | 8.0 | 0.00 | 0.00 | 0.00 | 99 | 1025.3 |
| 20260904181548 | 81 | 49 | 3.0 | 4.0 | 0.00 | 0.00 | 0.00 | 99 | 1025.3 |
| 20260904181048 | 81 | 49 | 3.0 | 4.0 | 0.00 | 0.00 | 0.00 | 99 | 1025.3 |
| 20260904180543 | 79 | 74 | 5.0 | 7.0 | 0.00 | 0.00 | 0.00 | 99 | 1025.6 |
| 20260904180038 | 79 | 74 | 5.0 | 7.0 | 0.00 | 0.00 | 0.00 | 99 | 1025.6 |
| 20260904175532 | 80 | 41 | 6.0 | 11.0 | 0.00 | 0.00 | 0.00 | 99 | 1025.3 |
| 20260904175031 | 80 | 41 | 6.0 | 11.0 | 0.00 | 0.00 | 0.00 | 99 | 1025.3 |
| 20260904174526 | 77 | 77 | 6.0 | 8.0 | 0.00 | 0.00 | 0.00 | 99 | 1025.5 |
| 20260904174023 | 77 | 77 | 6.0 | 8.0 | 0.00 | 0.00 | 0.00 | 99 | 1025.5 |
| 20260904173522 | 80 | 34 | 6.0 | 7.0 | 0.00 | 0.00 | 0.00 | 99 | 1025.3 |
| 20260904173018 | 80 | 34 | 6.0 | 7.0 | 0.00 | 0.00 | 0.00 | 99 | 1025.3 |
| 20260904172513 | 80 | 261 | 4.0 | 6.0 | 0.00 | 0.00 | 0.00 | 99 | 1025.5 |
| 20260904172012 | 80 | 261 | 4.0 | 6.0 | 0.00 | 0.00 | 0.00 | 99 | 1025.5 |
| 20260904171508 | 79 | 338 | 10.0 | 14.0 | 0.00 | 0.00 | 0.00 | 99 | 1025.3 |
| 20260904171004 | 79 | 338 | 10.0 | 14.0 | 0.00 | 0.00 | 0.00 | 99 | 1025.3 |
| 20260904170459 | 78 | 339 | 10.0 | 11.0 | 0.00 | 0.00 | 0.00 | 99 | 1025.3 |
| 20260904165955 | 78 | 339 | 10.0 | 11.0 | 0.00 | 0.00 | 0.00 | 99 | 1025.3 |
| 20260904165454 | 78 | 62 | 5.0 | 6.0 | 0.00 | 0.00 | 0.00 | 99 | 1025.3 |
| 20260904164953 | 78 | 62 | 5.0 | 6.0 | 0.00 | 0.00 | 0.00 | 99 | 1025.3 |
| 20260904164448 | 76 | 68 | 6.0 | 7.0 | 0.00 | 0.00 | 0.00 | 99 | 1025.3 |
| 20260904163944 | 76 | 68 | 6.0 | 7.0 | 0.00 | 0.00 | 0.00 | 99 | 1025.3 |
| 20260904163443 | 75 | 64 | 11.0 | 15.0 | 0.00 | 0.00 | 0.00 | 99 | 1025.1 |
| 20260904162938 | 75 | 64 | 11.0 | 15.0 | 0.00 | 0.00 | 0.00 | 99 | 1025.1 |
| 20260904162433 | 75 | 16 | 9.0 | 13.0 | 0.00 | 0.00 | 0.00 | 99 | 1025.2 |
| 20260904161928 | 75 | 16 | 9.0 | 13.0 | 0.00 | 0.00 | 0.00 | 99 | 1025.2 |
| 20260904161423 | 75 | 85 | 6.0 | 8.0 | 0.00 | 0.00 | 0.00 | 99 | 1025.2 |
| 20260904160919 | 75 | 85 | 6.0 | 8.0 | 0.00 | 0.00 | 0.00 | 99 | 1025.2 |
| 20260904160414 | 75 | 29 | 4.0 | 4.0 | 0.00 | 0.00 | 0.00 | 99 | 1025.2 |
| 20260904155909 | 75 | 29 | 4.0 | 4.0 | 0.00 | 0.00 | 0.00 | 99 | 1025.2 |
| 20260904155403 | 74 | 29 | 12.0 | 14.0 | 0.00 | 0.00 | 0.00 | 99 | 1024.8 |
| 20260904154902 | 74 | 29 | 12.0 | 14.0 | 0.00 | 0.00 | 0.00 | 99 | 1024.8 |
| 20260904154356 | 73 | 56 | 12.0 | 15.0 | 0.00 | 0.00 | 0.00 | 99 | 1024.8 |
| 20260904153852 | 73 | 56 | 12.0 | 15.0 | 0.00 | 0.00 | 0.00 | 99 | 1024.8 |
| 20260904153347 | 73 | 112 | 12.0 | 16.0 | 0.00 | 0.00 | 0.00 | 99 | 1024.8 |
| 20260904152844 | 73 | 112 | 12.0 | 16.0 | 0.00 | 0.00 | 0.00 | 99 | 1024.8 |
| 20260904152338 | 73 | 51 | 6.0 | 8.0 | 0.00 | 0.00 | 0.00 | 99 | 1024.7 |
| 20260904151833 | 73 | 51 | 6.0 | 8.0 | 0.00 | 0.00 | 0.00 | 99 | 1024.7 |
| 20260904151332 | 73 | 64 | 12.0 | 14.0 | 0.00 | 0.00 | 0.00 | 99 | 1024.7 |
| 20260904150829 | 73 | 64 | 12.0 | 14.0 | 0.00 | 0.00 | 0.00 | 99 | 1024.7 |
| 20260904150323 | 72 | 71 | 6.0 | 7.0 | 0.00 | 0.00 | 0.00 | 99 | 1024.6 |
| 20260904145821 | 72 | 71 | 6.0 | 7.0 | 0.00 | 0.00 | 0.00 | 99 | 1024.6 |
| 20260904145318 | 72 | 56 | 8.0 | 11.0 | 0.00 | 0.00 | 0.00 | 99 | 1024.5 |
| 20260904144813 | 71 | 71 | 6.0 | 9.0 | 0.00 | 0.00 | 0.00 | 99 | 1024.7 |
| 20260904144308 | 71 | 71 | 6.0 | 9.0 | 0.00 | 0.00 | 0.00 | 99 | 1024.7 |
| 20260904143803 | 71 | 104 | 3.0 | 3.0 | 0.00 | 0.00 | 0.00 | 99 | 1024.5 |
| 20260904143300 | 71 | 104 | 3.0 | 3.0 | 0.00 | 0.00 | 0.00 | 99 | 1024.5 |
| 20260904142756 | 70 | 67 | 6.0 | 11.0 | 0.00 | 0.00 | 0.00 | 99 | 1024.3 |
| 20260904142252 | 70 | 67 | 6.0 | 11.0 | 0.00 | 0.00 | 0.00 | 99 | 1024.3 |
| 20260904141752 | 69 | 64 | 7.0 | 9.0 | 0.00 | 0.00 | 0.00 | 99 | 1024.6 |
| 20260904141247 | 69 | 64 | 7.0 | 9.0 | 0.00 | 0.00 | 0.00 | 99 | 1024.6 |
| 20260904140742 | 69 | 97 | 16.0 | 18.0 | 0.00 | 0.00 | 0.00 | 99 | 1024.3 |
| 20260904140238 | 69 | 97 | 16.0 | 18.0 | 0.00 | 0.00 | 0.00 | 99 | 1024.3 |
| 20260904135736 | 68 | 99 | 8.0 | 9.0 | 0.00 | 0.00 | 0.00 | 99 | 1024.5 |
| 20260904135232 | 68 | 99 | 8.0 | 9.0 | 0.00 | 0.00 | 0.00 | 99 | 1024.5 |
| 20260904134728 | 68 | 146 | 6.0 | 7.0 | 0.00 | 0.00 | 0.00 | 99 | 1024.5 |
| 20260904134227 | 68 | 146 | 6.0 | 7.0 | 0.00 | 0.00 | 0.00 | 99 | 1024.5 |
| 20260904133722 | 67 | 72 | 8.0 | 9.0 | 0.00 | 0.00 | 0.00 | 99 | 1023.9 |
| 20260904133219 | 67 | 72 | 8.0 | 9.0 | 0.00 | 0.00 | 0.00 | 99 | 1023.9 |
| 20260904132719 | 67 | 78 | 14.0 | 15.0 | 0.00 | 0.00 | 0.00 | 99 | 1023.7 |
| 20260904132214 | 67 | 78 | 14.0 | 15.0 | 0.00 | 0.00 | 0.00 | 99 | 1023.7 |
| 20260904131713 | 67 | 127 | 13.0 | 15.0 | 0.00 | 0.00 | 0.00 | 99 | 1023.3 |
| 20260904131209 | 67 | 127 | 13.0 | 15.0 | 0.00 | 0.00 | 0.00 | 99 | 1023.3 |
| 20260904130709 | 67 | 92 | 9.0 | 10.0 | 0.00 | 0.00 | 0.00 | 99 | 1023.6 |
| 20260904130208 | 67 | 92 | 9.0 | 10.0 | 0.00 | 0.00 | 0.00 | 99 | 1023.6 |
| 20260904125704 | 65 | 125 | 9.0 | 9.0 | 0.00 | 0.00 | 0.00 | 99 | 1023.6 |
| 20260904125159 | 65 | 125 | 9.0 | 9.0 | 0.00 | 0.00 | 0.00 | 99 | 1023.6 |
| 20260904124654 | 66 | 123 | 8.0 | 9.0 | 0.00 | 0.00 | 0.00 | 99 | 1023.3 |
| 20260904124150 | 66 | 123 | 8.0 | 9.0 | 0.00 | 0.00 | 0.00 | 99 | 1023.3 |
| 20260904123650 | 65 | 118 | 9.0 | 13.0 | 0.00 | 0.00 | 0.00 | 99 | 1023.2 |
| 20260904123146 | 65 | 118 | 9.0 | 13.0 | 0.00 | 0.00 | 0.00 | 99 | 1023.2 |
| 20260904122640 | 64 | 143 | 9.0 | 10.0 | 0.00 | 0.00 | 0.00 | 99 | 1023.1 |
| 20260904122135 | 64 | 143 | 9.0 | 10.0 | 0.00 | 0.00 | 0.00 | 99 | 1023.1 |
| 20260904121630 | 65 | 139 | 10.0 | 11.0 | 0.00 | 0.00 | 0.00 | 99 | 1022.9 |
| 20260904121126 | 65 | 139 | 10.0 | 11.0 | 0.00 | 0.00 | 0.00 | 99 | 1022.9 |
| 20260904120623 | 65 | 164 | 11.0 | 13.0 | 0.00 | 0.00 | 0.00 | 99 | 1023.2 |
| 20260904120119 | 65 | 164 | 11.0 | 13.0 | 0.00 | 0.00 | 0.00 | 99 | 1023.2 |
| 20260904115618 | 65 | 137 | 12.0 | 14.0 | 0.00 | 0.00 | 0.00 | 99 | 1023.3 |
| 20260904115114 | 65 | 137 | 12.0 | 14.0 | 0.00 | 0.00 | 0.00 | 99 | 1023.3 |
| 20260904114613 | 64 | 149 | 10.0 | 13.0 | 0.00 | 0.00 | 0.00 | 99 | 1023.1 |
| 20260904114109 | 64 | 149 | 10.0 | 13.0 | 0.00 | 0.00 | 0.00 | 99 | 1023.1 |
| 20260904113608 | 65 | 113 | 12.0 | 14.0 | 0.00 | 0.00 | 0.00 | 99 | 1023.2 |
| 20260904113107 | 65 | 113 | 12.0 | 14.0 | 0.00 | 0.00 | 0.00 | 99 | 1023.2 |
| 20260904112603 | 65 | 102 | 13.0 | 16.0 | 0.00 | 0.00 | 0.00 | 99 | 1023.3 |
| 20260904112059 | 65 | 102 | 13.0 | 16.0 | 0.00 | 0.00 | 0.00 | 99 | 1023.3 |
| 20260904111554 | 65 | 135 | 17.0 | 19.0 | 0.00 | 0.00 | 0.00 | 99 | 1023.1 |
| 20260904111050 | 65 | 135 | 17.0 | 19.0 | 0.00 | 0.00 | 0.00 | 99 | 1023.1 |
| 20260904110544 | 66 | 157 | 11.0 | 13.0 | 0.00 | 0.00 | 0.00 | 99 | 1023.2 |
| 20260904110040 | 66 | 157 | 11.0 | 13.0 | 0.00 | 0.00 | 0.00 | 99 | 1023.2 |
| 20260904105539 | 65 | 150 | 15.0 | 16.0 | 0.00 | 0.00 | 0.00 | 99 | 1023.2 |
| 20260904105034 | 65 | 150 | 15.0 | 16.0 | 0.00 | 0.00 | 0.00 | 99 | 1023.2 |
| 20260904104530 | 66 | 115 | 10.0 | 11.0 | 0.00 | 0.00 | 0.00 | 99 | 1023.3 |